星链-32255 (STARLINK-32255)

导读

STARLINK-32255是美国太空探索技术公司(SpaceX)于2024年8月10日发射的星链(Starlink)低轨互联网卫星,属于星链星座组网的组成部分。它部署在近地轨道,依托星链星座的激光星间链路、自主防撞系统等技术,可为全球提供低延迟高速宽带服务,覆盖民用通信、航空航海互联网接入乃至军事通信等场景,助力星链完成全球网络覆盖的布局。

基本信息
目录编号:
60417
目录名称:
STARLINK-32255
国际标识:
2024-141V
轨道中心:
EARTH
卫星名称:
星链-32255 (STARLINK-32255)
卫星全名:
星链-32255 (STARLINK-32255)
卫星状态:
在轨 (已飞行755 天)
发射日期:
2024-08-10 UTC
国别 :
美国 (US)
星等 :
--
轨道信息
数据来源 国际轨道数据 AOE轨道数据
星历时间 2026-09-04T10:06:50+0800
8小时前
查看轨道信息
2026-08-31T22:00:00+0800
3天前
查看轨道信息
半长轴 6840.897km 6840.789km
偏心率 0.0001282 0.0001381
轨道倾角 53.160° 53.157°
近地点辐角 121.325° 58.205°
升交点赤经 130.438° 146.828°
平近点角 238.787° 11.555°
近地点 461.882km 461.707km
远地点 463.638km 463.597km
周期 93.849分钟 93.847分钟
每日圈数 15.343812 15.344173
详细信息
卫星平台:
Starlink v2.0 mini
运营商:
太空探索技术公司
运营商所在国:
美国
制造商(研发单位):
太空探索技术公司
制造商所在国:
美国
使用方式:
暂无
卫星简介
星链(Starlink)计划是由太空探索技术公司(SpaceX)提出的一个巨型低轨卫星互联网星座项目,计划在2019年至2024年间在太空搭建由约1.2万颗卫星组成的“星链”网络,其中1584颗将部署在地球上空550千米处的近地轨道,并从2020年开始工作。该卫星仍在工作。
2D轨道图
3D轨道图
轨道高度分析图
轨道倾角分析图
轨道综合分析图
查看轨道综合分析图
交会数据列表
事件ID 空间交会对象 最接近时刻(TCA) 交会距离 交会风险概率(CRP) 交会风险指数(CRI) 操作
CDM_260906-153206-041706-585921
2026-09-06T
15:32:33+0000
0.561 km
远距离
8.277314E-5 中风险 0.73
CDM_260905-015106-041706-537021
2026-09-05T
01:51:02+0000
0.853 km
远距离
2.804472E-5 中风险 0.64
CDM_260905-165506-041706-278121
2026-09-05T
16:55:00+0000
1.169 km
极远距离
9.944714E-6 低风险 0.55
CDM_260906-043806-041706-278121
2026-09-06T
04:38:27+0000
1.191 km
极远距离
9.310967E-6 低风险 0.54
CDM_260903-232004-649606-041722
ICEYE-X7 (46496)
2026-09-03T
23:20:26+0000
1.443 km
极远距离
6.208797E-6 低风险 0.51
CDM_260905-120006-041706-537021
2026-09-05T
12:00:40+0000
1.413 km
极远距离
4.990263E-6 低风险 0.49
CDM_260905-182806-041706-278121
2026-09-05T
18:28:48+0000
1.725 km
极远距离
2.812595E-6 低风险 0.44
CDM_260906-030406-041706-278121
2026-09-06T
03:04:40+0000
1.821 km
极远距离
2.420174E-6 低风险 0.43
CDM_260904-214406-041706-324022
2026-09-04T
21:44:55+0000
1.783 km
极远距离
2.205267E-6 低风险 0.42
CDM_260905-032406-041706-537021
2026-09-05T
03:24:49+0000
2.009 km
极远距离
1.803696E-6 低风险 0.4